TimeMST,TemperatureF,Dew PointF,Humidity,Sea Level PressureIn,VisibilityMPH,Wind Direction,Wind SpeedMPH,Gust SpeedMPH,PrecipitationIn,Events,Conditions,WindDirDegrees,DateUTC
12:56 AM,26.1,21.0,81,30.28,-9999.0,Variable,3.5,-,N/A,,Unknown,0,2013-01-25 07:56:00
1:56 AM,27.0,21.0,78,30.28,-9999.0,Calm,Calm,-,N/A,,Unknown,0,2013-01-25 08:56:00
2:56 AM,26.1,21.9,84,30.29,-9999.0,Calm,Calm,-,N/A,,Unknown,0,2013-01-25 09:56:00
3:56 AM,27.0,21.9,81,30.27,-9999.0,Calm,Calm,-,N/A,,Unknown,0,2013-01-25 10:56:00
4:56 AM,26.1,23.0,88,30.27,-9999.0,Calm,Calm,-,N/A,,Unknown,0,2013-01-25 11:56:00
5:56 AM,27.0,23.0,85,30.29,-9999.0,Variable,3.5,-,N/A,,Unknown,0,2013-01-25 12:56:00
6:56 AM,27.0,23.0,85,30.28,-9999.0,Calm,Calm,-,N/A,,Unknown,0,2013-01-25 13:56:00
7:56 AM,26.1,23.0,88,30.29,-9999.0,Calm,Calm,-,N/A,,Unknown,0,2013-01-25 14:56:00
8:56 AM,28.0,23.0,81,30.27,-9999.0,Calm,Calm,-,N/A,,Unknown,0,2013-01-25 15:56:00
9:56 AM,28.0,23.0,81,30.28,-9999.0,Calm,Calm,-,N/A,,Unknown,0,2013-01-25 16:56:00
10:56 AM,28.9,24.1,82,30.28,-9999.0,Calm,Calm,-,N/A,,Unknown,0,2013-01-25 17:56:00
11:56 AM,30.9,21.9,69,30.25,-9999.0,Variable,4.6,-,N/A,,Unknown,0,2013-01-25 18:56:00
12:56 PM,30.9,23.0,72,30.22,-9999.0,Calm,Calm,-,N/A,,Unknown,0,2013-01-25 19:56:00
1:56 PM,30.9,21.9,69,30.19,-9999.0,Variable,3.5,18.4,N/A,,Unknown,0,2013-01-25 20:56:00
2:56 PM,30.9,23.0,72,30.17,-9999.0,Calm,Calm,-,N/A,,Unknown,0,2013-01-25 21:56:00
3:56 PM,30.9,23.0,72,30.17,-9999.0,Calm,Calm,-,N/A,,Unknown,0,2013-01-25 22:56:00
4:56 PM,30.0,23.0,75,30.19,-9999.0,Calm,Calm,-,N/A,,Unknown,0,2013-01-25 23:56:00
5:56 PM,30.0,23.0,75,30.16,-9999.0,Calm,Calm,-,N/A,,Unknown,0,2013-01-26 00:56:00
6:56 PM,28.9,24.1,82,30.17,-9999.0,Calm,Calm,-,N/A,,Unknown,0,2013-01-26 01:56:00
7:56 PM,28.9,23.0,78,30.15,-9999.0,Calm,Calm,-,N/A,,Unknown,0,2013-01-26 02:56:00
8:56 PM,28.9,24.1,82,30.12,-9999.0,Calm,Calm,-,N/A,,Unknown,0,2013-01-26 03:56:00
9:56 PM,28.9,23.0,78,30.11,-9999.0,Variable,3.5,-,N/A,,Unknown,0,2013-01-26 04:56:00
10:56 PM,28.9,23.0,78,30.10,-9999.0,Calm,Calm,-,N/A,,Unknown,0,2013-01-26 05:56:00
11:56 PM,28.0,23.0,81,30.09,-9999.0,Calm,Calm,-,N/A,,Unknown,0,2013-01-26 06:56:00